Location: Newark
(49.9833°N, 3.7472°E)
Time: 04:41:47
(UTC+00:00)

N. Korean satellite - Visible Passes

Search period start: 23 September 2019 00:00
Search period end: 03 October 2019 00:00
Orbit: 455 x 509 km, 97.2° (Epoch: 22 September)

Date Brightness Start Highest point End Pass type
(mag) Time Alt. Az. Time Alt. Az. Time Alt. Az.
24 Sep 9.8 04:52:07 10° NE 04:54:24 17° E 04:56:42 10° SE visible
28 Sep 10.0 04:44:53 10° ENE 04:46:47 14° E 04:48:42 10° SE visible
29 Sep 10.6 18:07:43 10° WSW 18:08:42 11° W 18:09:42 10° WNW visible
01 Oct 9.6 05:01:50 10° NE 05:04:36 22° E 05:07:21 10° SSE visible
02 Oct 10.2 04:37:47 10° ENE 04:39:08 12° E 04:40:29 10° ESE visible
